CAPE
nan nan nan nan nan nan nan nan nan nan nan nan nan nan nan nan nan nan nan nan nan nan nan nan nan nan 3 51 82 82 114 132 145 145 149 143 141 141 131 127 127 112 82 45 45 21 17 20 20 33 51 68 76 76 84 83 83 88 102 114 114 111 99 78 78 69 62 61 67 67 79 85 65 65 45 42 26 26 18 19 19 20 19 24 24 35
nan nan nan nan nan nan nan nan nan nan nan nan nan nan nan nan nan nan nan nan nan nan nan nan nan nan nan 8 67 67 92 120 146 146 163 166 165 165 157 147 147 136 108 68 68 44 34 33 33 37 44 56 67 67 72 76 76 80 82 92 92 96 85 71 71 65 52 49 44 44 42 58 70 70 46 52 54 54 44 36 36 29 28 39 39 51
nan nan nan nan nan nan nan nan nan nan nan nan nan nan nan nan nan nan nan nan nan nan nan nan nan nan nan 0 57 57 71 98 130 130 156 173 178 178 179 170 170 157 133 97 97 60 50 48 48 46 39 47 56 56 60 66 66 67 64 61 61 55 52 49 49 40 36 35 29 29 22 35 61 61 40 52 70 70 66 63 63 55 56 64 64 61
1 1 0 nan nan nan nan nan nan nan nan nan nan nan nan nan nan nan nan nan nan nan nan nan nan nan nan nan 37 37 65 79 108 108 140 166 182 182 191 183 183 177 154 127 127 93 69 69 69 59 43 40 47 47 54 57 57 64 59 43 43 28 24 21 21 24 26 30 24 24 25 40 45 45 32 27 39 39 54 55 55 66 74 88 88 91
1 1 0 nan nan nan nan nan nan nan nan nan nan nan nan nan nan nan nan nan nan nan nan nan nan nan nan nan 21 21 68 85 104 104 132 170 188 188 197 200 200 188 172 146 146 115 98 86 86 66 52 40 42 42 50 55 55 60 60 46 46 26 14 16 16 22 30 37 38 38 44 50 46 46 21 20 25 25 33 41 41 44 58 80 80 88
0 0 0 nan nan nan nan nan nan nan 0 nan nan nan nan 0 nan nan nan nan nan nan nan 0 0 0 0 0 30 30 77 102 127 127 160 193 208 208 217 215 215 195 180 165 165 141 119 100 100 80 62 42 41 41 49 54 54 62 66 62 62 43 24 21 21 29 43 51 56 56 60 56 38 38 12 10 19 19 24 24 24 23 33 50 50 69
0 nan nan nan nan nan nan nan nan nan nan nan nan nan nan nan 0 0 0 nan nan 1 1 5 5 7 8 19 61 61 94 111 156 156 183 213 231 231 231 212 212 198 183 180 180 167 151 124 124 99 70 44 40 40 47 51 51 59 68 72 72 62 41 33 33 44 58 73 72 72 67 57 32 32 10 5 11 11 18 19 19 17 19 21 21 33
nan nan nan nan nan nan nan nan nan nan nan nan nan nan nan nan nan nan nan nan nan 0 4 7 7 7 7 4 12 12 12 7 6 6 29 66 143 143 182 215 215 216 227 222 222 210 176 138 138 107 80 66 49 49 46 41 41 46 53 67 67 76 68 48 48 45 54 65 66 66 62 56 45 45 21 3 1 1 6 9 9 10 10 9 9 8
nan nan nan nan nan nan nan nan nan nan nan nan nan nan nan nan nan nan nan nan nan nan 0 2 2 2 1 nan 0 0 8 12 0 0 1 nan nan nan 78 179 179 216 230 217 217 193 161 140 140 111 97 77 63 63 44 38 38 39 43 57 57 69 65 47 47 41 44 49 47 47 47 47 42 42 26 8 2 2 3 4 4 4 6 6 6 5
nan nan nan nan nan nan nan nan nan nan nan nan nan nan nan nan nan nan 1 nan nan nan nan nan nan 0 0 nan 0 0 5 21 67 67 155 122 174 174 138 151 151 142 205 187 187 170 155 139 139 129 108 92 66 66 45 32 32 34 39 47 47 58 52 39 39 35 39 42 39 39 37 34 32 32 25 11 3 3 2 1 1 0 0 1 1 2
nan nan nan nan nan nan nan nan nan nan nan nan nan nan nan nan nan nan nan nan nan nan nan nan nan nan 0 1 3 3 8 13 29 29 68 128 183 183 211 198 198 192 195 188 188 173 160 152 152 143 116 95 61 61 38 30 30 31 31 38 38 43 43 35 35 28 34 37 35 35 30 29 25 25 22 12 6 6 2 nan nan nan nan nan nan nan
nan nan nan nan nan nan nan nan nan nan nan nan nan nan nan nan nan nan nan nan nan nan nan nan nan nan nan 0 9 9 13 21 19 19 11 16 45 45 99 111 111 153 158 169 169 172 171 163 163 138 100 67 56 56 32 26 26 29 30 33 33 35 37 31 31 25 29 33 31 31 31 29 28 28 25 18 9 9 4 0 0 nan nan nan nan nan
nan nan nan nan nan nan nan nan nan nan nan nan nan nan nan nan nan nan nan nan nan nan nan nan nan nan nan nan 5 5 13 16 11 11 8 13 7 7 10 13 13 20 34 39 39 25 98 124 124 102 87 51 47 47 41 33 33 31 29 32 32 36 41 35 35 28 26 29 31 31 34 35 34 34 29 24 16 16 8 2 2 nan nan nan nan nan
nan nan nan nan nan nan nan nan nan nan nan nan nan nan nan nan nan nan nan nan nan nan nan nan nan nan nan nan 1 1 2 1 1 1 6 9 3 3 5 11 11 10 8 6 6 3 19 26 26 13 49 39 34 34 40 43 43 49 49 45 45 43 41 40 40 35 27 25 32 32 38 42 41 41 37 30 20 20 10 4 4 nan nan nan nan nan
nan nan nan nan nan nan nan nan nan nan nan nan nan nan nan nan nan nan nan nan nan nan nan nan nan nan nan nan nan nan nan nan nan nan 10 9 1 1 1 16 16 10 4 7 7 2 12 7 7 0 4 12 16 16 34 62 62 99 80 78 78 68 55 46 46 38 29 29 36 36 49 57 55 55 44 33 21 21 10 7 7 1 nan nan nan nan
nan nan nan nan nan nan nan nan nan nan nan nan nan nan nan nan nan nan nan nan nan nan nan nan nan nan nan nan nan nan nan nan 5 5 18 24 3 3 2 17 17 13 2 2 2 0 0 nan nan 0 1 14 60 60 77 98 98 132 127 121 121 111 85 67 67 53 42 42 53 53 66 66 59 59 45 32 22 22 12 7 7 2 nan nan nan nan
nan nan nan nan nan nan nan nan nan nan nan nan nan nan nan nan nan nan nan nan nan nan nan nan nan nan 0 nan nan nan nan 4 13 13 27 29 8 8 0 8 8 16 3 2 2 0 0 0 0 1 2 45 93 93 97 120 120 159 185 184 184 158 140 110 110 84 77 68 75 75 75 65 52 52 40 29 20 20 12 5 5 4 2 1 1 1
nan nan nan nan nan nan nan nan nan nan nan nan nan nan nan nan nan nan nan nan nan nan nan nan nan nan 0 1 nan nan nan 1 17 17 24 11 0 0 nan 1 1 15 8 4 4 1 2 3 3 5 29 133 143 143 153 163 163 201 233 240 240 197 157 112 112 105 101 98 86 86 71 54 42 42 34 26 16 16 9 7 7 9 7 6 6 6
nan nan nan nan nan nan nan nan nan nan nan nan nan nan nan nan nan nan nan nan nan nan nan 0 0 2 1 4 nan nan nan nan 3 3 8 1 nan nan nan 1 1 31 34 28 28 19 27 45 45 123 187 215 206 206 216 238 238 241 248 211 211 180 171 148 148 115 120 125 104 104 78 55 42 42 34 25 17 17 12 11 11 13 12 10 10 8
nan nan nan nan nan nan nan nan nan nan nan nan nan nan nan nan nan nan nan nan nan nan 0 1 1 nan nan nan nan nan nan nan 0 0 1 1 nan nan nan 9 9 44 56 53 53 42 91 100 100 151 219 227 249 249 266 257 257 233 206 181 181 180 188 198 198 186 159 149 125 125 94 73 42 42 29 25 20 20 22 21 21 19 16 13 13 10
nan nan nan nan nan nan nan nan nan nan nan nan nan nan nan nan nan nan nan nan nan nan nan nan nan nan nan nan nan nan nan nan nan nan 1 3 2 2 nan 8 8 33 51 17 17 5 39 77 77 124 203 244 272 272 295 271 271 239 215 179 179 155 162 178 178 194 191 170 139 139 116 82 47 47 25 18 19 19 21 20 20 17 15 13 13 10
nan nan nan nan nan nan nan nan nan nan nan nan nan nan nan nan nan nan nan nan nan nan nan nan nan nan nan nan nan nan nan nan 5 5 14 18 10 10 nan 0 0 11 22 7 7 2 5 24 24 77 168 253 278 278 292 318 318 328 285 227 227 199 140 135 135 143 141 150 122 122 88 53 30 30 20 11 8 8 9 11 11 10 10 9 9 8
nan nan nan nan nan nan nan nan nan nan 0 nan nan nan nan nan nan nan nan nan nan nan nan nan nan nan nan nan nan nan nan nan 13 13 28 26 13 13 0 0 0 1 3 nan nan nan 2 17 17 64 172 277 281 281 312 342 342 361 298 230 230 188 162 123 123 119 92 88 78 78 58 34 22 22 12 4 3 3 5 5 5 6 7 8 8 7
nan nan nan nan nan nan nan nan nan nan nan nan nan nan nan nan nan nan nan nan nan nan nan nan nan nan nan nan nan nan nan 0 14 14 21 16 10 10 0 1 1 3 1 nan nan nan 4 20 20 35 119 245 297 297 326 339 339 349 252 193 193 169 167 110 110 102 86 73 69 69 60 45 24 24 13 12 9 9 7 7 7 7 7 8 8 7
nan nan nan nan nan 0 nan nan nan nan nan nan nan nan nan 0 2 2 nan nan nan nan nan nan nan nan nan 13 4 4 1 2 6 6 9 15 8 8 1 1 1 6 2 nan nan nan 7 20 20 21 27 142 262 262 314 319 319 277 189 136 136 152 157 106 106 117 111 95 78 78 72 53 30 30 24 21 20 20 17 16 16 12 10 9 9 8
2 0 0 3 3 21 30 31 27 27 16 1 nan nan nan nan nan nan nan nan nan nan nan nan nan nan nan nan 0 0 nan nan 1 1 4 7 5 5 nan 1 1 3 6 0 0 2 16 17 17 14 13 36 214 214 254 261 261 236 168 125 125 140 163 147 147 141 125 113 93 93 69 41 29 29 23 24 22 22 19 17 17 16 14 10 10 9
56 52 55 58 58 61 70 79 96 96 112 73 11 11 nan nan nan nan nan nan nan nan nan nan nan nan nan nan 0 0 nan nan nan nan 1 6 11 11 3 1 1 7 14 9 9 10 27 25 25 15 10 7 67 67 201 212 212 206 169 156 156 153 162 165 165 136 116 105 84 84 58 30 21 21 20 20 21 21 19 17 17 19 17 13 13 13
98 97 100 99 99 96 92 102 116 116 129 134 145 145 42 nan nan nan nan nan nan nan nan nan nan nan nan nan nan nan nan nan nan nan nan 6 15 15 8 3 3 11 17 15 15 13 36 26 26 13 5 1 1 1 84 165 165 177 184 179 179 168 154 129 129 98 90 78 67 67 45 25 22 22 22 21 20 20 19 20 20 21 19 13 13 12
85 93 104 114 114 119 121 131 137 137 147 152 160 160 78 nan nan nan nan nan nan nan nan nan nan nan nan nan nan nan nan 0 nan nan nan 6 13 13 3 5 5 10 9 5 5 3 8 7 7 2 2 1 nan nan 2 127 127 165 187 176 176 168 134 99 99 81 69 62 46 46 30 26 23 23 20 21 18 18 21 21 21 22 18 16 16 13
53 79 94 108 108 120 120 97 121 121 147 153 154 154 105 0 nan nan nan nan nan nan nan nan nan nan nan nan nan nan nan nan nan nan nan 3 12 12 0 3 3 7 3 1 1 1 0 nan nan nan nan 3 nan nan nan nan nan 8 66 135 135 100 67 44 44 41 35 33 27 27 25 25 23 23 21 21 23 23 22 21 21 19 19 15 15 16
14 23 30 49 49 61 51 36 64 64 111 133 136 136 111 15 0 0 nan nan nan nan nan nan nan nan nan nan nan nan nan nan nan nan nan nan nan nan nan nan nan nan nan 4 4 12 7 1 1 0 nan nan nan nan nan nan nan nan nan nan nan nan 2 0 0 4 13 18 20 20 22 23 22 22 20 21 23 23 23 22 22 20 19 21 21 19
7 6 7 10 10 11 15 14 11 11 11 11 17 17 37 32 9 9 nan nan nan nan nan nan nan nan nan nan nan nan nan nan nan nan nan nan nan nan nan nan nan nan nan 17 17 36 30 19 19 nan nan nan nan nan nan nan nan nan nan nan nan nan nan 0 0 3 3 10 12 12 14 16 19 19 19 21 23 23 24 26 26 29 33 28 28 21
10 5 3 2 2 7 8 9 6 6 5 3 2 2 0 3 10 10 2 nan nan nan nan nan nan nan nan nan nan nan nan nan nan nan nan nan nan nan nan nan nan nan 3 19 19 36 41 26 26 4 nan nan nan nan nan nan nan nan nan nan nan nan nan 0 0 0 1 3 7 7 14 16 18 18 19 22 20 20 25 28 28 32 33 32 32 22
13 11 8 6 6 8 12 7 2 2 0 0 0 0 nan nan 0 0 3 0 0 nan nan nan nan nan nan nan nan nan nan nan nan nan 0 nan nan nan nan nan nan nan 1 7 7 29 37 28 28 26 2 nan nan nan nan nan nan nan nan nan nan nan nan 0 0 nan 0 1 nan nan 0 0 11 11 10 12 15 15 20 26 26 32 38 38 38 29
14 15 13 12 12 11 8 3 0 0 nan nan nan nan nan nan nan nan nan nan nan nan nan nan nan nan nan nan nan nan nan nan nan nan 1 nan nan nan nan nan nan nan nan 1 1 12 23 25 25 35 14 nan nan nan nan nan nan nan nan nan nan nan nan nan nan 0 1 1 nan nan nan nan 0 0 3 7 8 8 10 12 12 21 24 24 24 28
21 20 17 8 8 3 3 6 4 4 0 nan nan nan nan nan nan nan nan nan nan nan 1 nan nan nan nan nan nan nan nan nan nan nan 1 nan nan nan nan nan nan nan nan 2 2 11 17 22 22 30 37 3 nan nan nan nan nan nan nan nan nan nan nan nan nan nan nan 1 0 0 nan nan 0 0 3 8 7 7 5 5 5 6 3 1 1 2
15 12 5 2 2 1 3 2 1 1 0 0 nan nan nan nan nan nan nan nan nan nan nan 1 1 1 1 nan nan nan nan nan nan nan nan 0 nan nan 0 1 1 1 1 3 3 12 20 23 23 23 28 10 nan nan nan nan nan nan nan nan nan nan nan nan nan 0 0 2 1 1 0 0 1 1 3 7 5 5 8 8 8 5 3 0 0 0
7 5 1 0 0 nan nan nan 0 0 1 0 1 1 nan nan nan nan nan nan nan nan nan nan nan nan 3 3 nan nan nan nan nan nan nan 0 nan nan nan 0 0 5 5 7 7 10 10 15 15 16 11 nan nan nan nan nan nan nan nan nan nan nan nan nan nan nan 0 1 3 3 3 1 nan nan nan 0 0 0 0 0 0 3 2 nan nan 0
nan nan nan nan nan nan nan nan nan nan 0 2 0 0 nan nan nan nan nan nan nan nan nan nan nan nan nan nan 2 2 1 nan nan nan nan nan nan nan 0 0 0 1 4 4 4 6 8 10 10 9 3 nan nan nan nan nan nan nan nan nan nan nan nan nan nan nan 0 0 3 3 2 nan nan nan nan nan nan nan nan nan nan 0 0 nan nan nan
0 nan nan 1 1 nan nan nan nan nan nan 2 5 5 0 nan nan nan nan nan nan nan nan nan nan nan nan nan 2 2 4 3 4 4 4 0 nan nan 0 1 1 4 7 10 10 13 12 11 11 12 11 nan nan nan nan nan nan nan 1 nan nan nan nan nan nan nan nan nan 0 0 nan nan nan nan nan nan nan nan nan nan nan nan nan nan nan nan
3 0 2 4 4 8 5 nan nan nan nan 1 1 1 0 0 0 0 0 nan nan 0 nan nan nan nan nan nan nan nan nan nan nan nan nan nan nan nan nan 0 0 3 5 4 4 8 1 nan nan nan nan nan nan nan nan nan nan 3 4 nan nan nan nan nan nan nan nan nan nan nan 1 nan nan nan nan nan nan nan nan nan nan nan nan nan nan nan
16 7 3 3 3 5 1 nan nan nan 0 1 1 1 1 0 0 0 0 0 0 0 1 0 0 1 0 2 nan nan nan nan nan nan nan nan nan nan nan nan nan nan 0 nan nan nan nan nan nan nan nan nan nan nan nan nan nan nan nan nan nan nan nan nan nan nan nan nan nan nan 0 nan nan nan nan nan nan nan nan nan nan nan nan nan nan nan
8 1 nan nan nan 0 6 6 4 4 1 1 2 2 3 3 1 1 3 0 0 0 1 0 0 0 0 nan nan nan nan nan nan nan nan nan nan nan nan nan nan nan 0 0 0 nan nan nan nan nan nan nan nan nan nan nan nan nan nan nan nan nan nan nan nan nan nan nan nan nan nan nan nan nan nan nan nan nan nan nan nan 1 nan nan nan nan
3 nan nan nan nan nan 0 1 2 2 2 2 0 0 nan nan 1 1 0 nan nan nan nan nan nan nan nan nan nan nan nan nan nan nan nan 0 nan nan nan nan nan nan nan nan nan nan nan nan nan nan nan nan nan nan nan nan nan nan nan nan nan nan nan nan nan nan nan nan nan nan nan nan nan nan nan nan nan nan nan nan nan nan nan nan nan nan
0 nan nan nan nan nan nan nan nan nan nan nan 0 0 nan nan 0 0 0 nan nan nan nan nan nan nan nan nan nan nan nan nan nan nan nan 0 3 3 nan nan nan nan nan nan nan nan nan nan nan nan nan nan nan nan nan nan nan nan nan 0 0 nan nan nan nan nan nan nan nan nan nan nan nan nan nan nan nan nan nan nan nan nan nan nan nan nan
1 nan nan nan nan nan nan nan nan nan nan nan nan nan nan 0 0 0 0 nan nan nan nan nan nan nan nan nan nan nan nan nan nan nan nan nan nan nan 0 nan nan nan nan nan nan nan nan nan nan nan nan nan nan nan nan nan nan nan nan nan nan nan nan nan nan nan nan nan nan nan nan nan nan nan nan nan nan nan nan nan nan nan nan nan nan nan
1 nan nan nan nan nan nan nan nan nan nan nan nan nan nan nan nan nan nan nan nan nan nan nan nan nan nan nan nan nan nan nan nan nan nan nan nan nan nan nan nan 0 nan nan nan nan nan nan nan nan nan nan nan nan nan nan nan nan nan nan nan nan nan nan nan nan nan nan nan nan nan nan nan nan nan nan nan nan nan nan nan nan nan nan nan nan
4 nan nan nan nan nan nan nan nan nan nan nan nan nan nan nan nan nan nan nan nan nan nan nan nan nan nan nan nan nan nan nan nan nan nan nan nan nan nan nan nan nan nan nan nan nan nan nan nan nan nan nan nan nan nan nan nan nan nan nan nan nan nan nan nan nan nan nan nan nan nan nan nan nan nan nan nan nan nan nan nan nan nan nan nan nan
1 nan nan nan nan nan nan nan nan nan nan nan nan nan nan 1 3 3 nan nan nan nan nan nan nan nan nan nan nan nan 0 nan nan nan nan nan nan nan nan nan nan nan nan nan nan nan nan nan nan nan nan nan nan nan nan nan nan nan nan nan nan nan nan nan nan nan nan nan nan nan nan nan nan nan nan nan nan nan nan nan nan nan nan nan nan nan
1 0 0 nan nan nan nan nan nan nan nan nan nan nan nan nan nan nan nan nan nan nan nan nan nan nan nan nan nan nan nan nan nan nan nan nan nan nan nan nan nan nan nan nan nan nan nan nan nan 4 15 1 nan nan nan nan nan nan nan nan nan nan nan nan nan nan nan nan nan nan nan nan nan nan nan nan nan nan nan nan nan nan nan nan nan nan
1 0 nan nan nan nan nan nan nan nan nan nan nan nan nan nan nan nan nan nan nan nan nan nan nan nan nan nan nan nan 0 nan nan nan nan nan nan nan nan nan nan nan nan nan nan nan nan nan nan nan 7 31 4 4 nan nan nan nan nan nan nan nan nan nan nan nan 0 nan nan nan nan nan nan nan nan nan nan nan nan nan nan nan nan nan nan nan
CIN
nan nan nan nan nan nan nan nan nan nan nan nan nan nan nan nan nan nan nan nan nan nan nan nan nan nan -32 -0 -0 -0 -0 -0 -0 -0 -0 -0 -0 -0 -0 -0 -0 -0 -0 -0 -0 -0 -0 -0 -0 -0 -0 -0 -0 -0 -0 -0 -0 -0 -0 -0 -0 -0 -0 -0 -0 -0 -0 -0 -0 -0 -0 -0 -0 -0 -2 -7 -5 -5 -3 -2 -2 -1 -1 -0 -0 -0
nan nan nan nan nan nan nan nan nan nan nan nan nan nan nan nan nan nan nan nan nan nan nan nan nan nan nan -17 -0 -0 -0 -0 -0 -0 -0 -0 -0 -0 -0 -0 -0 -0 -0 -0 -0 -0 -0 -0 -0 -0 -0 -0 -0 -0 -0 -0 -0 -0 -0 -0 -0 -0 -0 -0 -0 -0 -0 -0 -0 -0 -1 -2 -0 -0 -0 -0 -0 -0 -2 -1 -1 -1 -0 -0 -0 -0
nan nan nan nan nan nan nan nan nan nan nan nan nan nan nan nan nan nan nan nan nan nan nan nan nan nan nan -35 -0 -0 -0 -0 -0 -0 -0 -0 -0 -0 -0 -0 -0 -0 -0 -0 -0 -0 -0 -0 -0 -0 -0 -0 -0 -0 -0 -0 -0 -0 -0 -0 -0 -0 -0 -0 -0 -0 -0 -0 -0 -0 -6 -9 -2 -2 -0 -0 -0 -0 -0 -0 -0 -1 -0 -0 -0 -0
-32 -25 -25 nan nan nan nan nan nan nan nan nan nan nan nan nan nan nan nan nan nan nan nan nan nan nan nan nan -0 -0 -0 -0 -0 -0 -0 -0 -0 -0 -0 -0 -0 -0 -0 -0 -0 -0 -0 -0 -0 -0 -0 -0 -0 -0 -0 -0 -0 -0 -0 -0 -0 -0 -0 -0 -0 -0 -0 -0 -0 -0 -3 -7 -3 -3 -0 -0 -0 -0 -0 -0 -0 -0 -0 -0 -0 -0
-28 -22 -20 nan nan nan nan nan nan nan nan nan nan nan nan nan nan nan nan nan nan nan nan nan nan nan nan nan -18 -18 -0 -0 -0 -0 -0 -0 -0 -0 -0 -0 -0 -0 -0 -0 -0 -0 -0 -0 -0 -0 -0 -0 -0 -0 -0 -0 -0 -0 -0 -0 -0 -0 -0 -0 -0 -0 -0 -0 -0 -0 -0 -3 -3 -3 -1 -0 -0 -0 -0 -0 -0 -0 -0 -0 -0 -0
-28 -25 -20 nan nan nan nan nan nan nan -59 nan nan nan nan -55 nan nan nan nan nan nan nan -74 -74 -73 -58 -56 -16 -16 -0 -0 -0 -0 -0 -0 -0 -0 -0 -0 -0 -0 -0 -0 -0 -0 -0 -0 -0 -0 -0 -0 -0 -0 -0 -0 -0 -0 -0 -0 -0 -0 -0 -0 -0 -0 -0 -0 -0 -0 -0 -2 -3 -3 -2 -0 -0 -0 -0 -0 -0 -0 -0 -0 -0 -0
-28 nan nan nan nan nan nan nan nan nan nan nan nan nan nan nan -54 -54 -42 nan nan -31 -33 -36 -36 -48 -53 -36 -5 -5 -0 -0 -0 -0 -0 -0 -0 -0 -0 -0 -0 -0 -0 -0 -0 -0 -0 -0 -0 -0 -0 -0 -0 -0 -0 -0 -0 -0 -0 -0 -0 -0 -0 -0 -0 -0 -0 -0 -0 -0 -0 -3 -4 -4 -3 -0 -0 -0 -0 -0 -0 -0 -0 -0 -0 -0
nan nan nan nan nan nan nan nan nan nan nan nan nan nan nan nan nan nan nan nan nan -59 -34 -19 -19 -24 -48 -58 -42 -42 -39 -41 -36 -36 -19 -9 -0 -0 -0 -0 -0 -0 -0 -0 -0 -0 -0 -0 -0 -0 -0 -0 -0 -0 -0 -0 -0 -0 -0 -0 -0 -0 -0 -0 -0 -0 -0 -0 -0 -0 -0 -2 -4 -4 -5 -5 -1 -1 -0 -0 -0 -0 -0 -0 -0 -0
nan nan nan nan nan nan nan nan nan nan nan nan nan nan nan nan nan nan nan nan nan nan -35 -23 -23 -31 -51 nan -64 -64 -36 -24 -41 -41 -35 nan nan nan -5 -0 -0 -0 -0 -0 -0 -0 -0 -0 -0 -0 -0 -0 -0 -0 -0 -0 -0 -0 -0 -0 -0 -0 -0 -0 -0 -0 -0 -0 -0 -0 -0 -1 -2 -2 -4 -5 -4 -4 -0 -0 -0 -0 -0 -0 -0 -0
nan nan nan nan nan nan nan nan nan nan nan nan nan nan nan nan nan nan -18 nan nan nan nan nan nan -25 -36 nan -61 -61 -40 -17 -0 -0 -0 -3 -0 -0 -2 -1 -1 -0 -0 -0 -0 -0 -0 -0 -0 -0 -0 -0 -0 -0 -0 -0 -0 -0 -0 -0 -0 -0 -0 -0 -0 -0 -0 -0 -0 -0 -0 -0 -1 -1 -2 -4 -6 -6 -4 -1 -1 -0 -0 -0 -0 -0
nan nan nan nan nan nan nan nan nan nan nan nan nan nan nan nan nan nan nan nan nan nan nan nan nan nan -26 -33 -48 -48 -32 -25 -12 -12 -2 -0 -0 -0 -0 -0 -0 -0 -0 -0 -0 -0 -0 -0 -0 -0 -0 -0 -0 -0 -0 -0 -0 -0 -0 -0 -0 -0 -0 -0 -0 -0 -0 -0 -0 -0 -0 -0 -0 -0 -1 -3 -6 -6 -7 nan nan nan nan nan nan nan
nan nan nan nan nan nan nan nan nan nan nan nan nan nan nan nan nan nan nan nan nan nan nan nan nan nan nan -37 -27 -27 -26 -18 -16 -16 -21 -15 -7 -7 -3 -2 -2 -0 -0 -0 -0 -0 -0 -0 -0 -0 -0 -0 -0 -0 -0 -3 -3 -0 -0 -0 -0 -0 -0 -0 -0 -0 -0 -0 -0 -0 -0 -0 -0 -0 -0 -2 -5 -5 -6 -9 -9 nan nan nan nan nan
nan nan nan nan nan nan nan nan nan nan nan nan nan nan nan nan nan nan nan nan nan nan nan nan nan nan nan nan -36 -36 -24 -21 -29 -29 -27 -28 -36 -36 -28 -22 -22 -24 -26 -21 -21 -22 -5 -0 -0 -0 -0 -0 -0 -0 -0 -2 -2 -0 -0 -0 -0 -0 -0 -0 -0 -0 -0 -0 -0 -0 -0 -0 -0 -0 -0 -0 -3 -3 -5 -7 -7 nan nan nan nan nan
nan nan nan nan nan nan nan nan nan nan nan nan nan nan nan nan nan nan nan nan nan nan nan nan nan nan nan nan -59 -59 -48 -41 -41 -41 -33 -36 -62 -62 -54 -30 -30 -28 -36 -33 -33 -35 -22 -17 -17 -20 -5 -4 -4 -4 -4 -2 -2 -0 -0 -0 -0 -0 -0 -0 -0 -0 -0 -0 -0 -0 -0 -0 -0 -0 -0 -0 -2 -2 -5 -7 -7 nan nan nan nan nan
nan nan nan nan nan nan nan nan nan nan nan nan nan nan nan nan nan nan nan nan nan nan nan nan nan nan nan nan nan nan nan nan nan nan -28 -39 -73 -73 -70 -34 -34 -30 -40 -32 -32 -41 -40 -44 -44 -47 -32 -17 -14 -14 -10 -4 -4 -0 -0 -0 -0 -0 -0 -0 -0 -1 -0 -0 -0 -0 -1 -1 -0 -0 -0 -1 -2 -2 -5 -7 -7 -10 nan nan nan nan
nan nan nan nan nan nan nan nan nan nan nan nan nan nan nan nan nan nan nan nan nan nan nan nan nan nan nan nan nan nan nan nan -32 -32 -19 -22 -54 -54 -65 -37 -37 -27 -47 -43 -43 -58 -71 nan nan -47 -37 -16 -5 -5 -3 -1 -1 -0 -0 -0 -0 -2 -3 -3 -3 -3 -2 -1 -1 -1 -1 -1 -1 -1 -1 -2 -4 -4 -5 -7 -7 -8 nan nan nan nan
nan nan nan nan nan nan nan nan nan nan nan nan nan nan nan nan nan nan nan nan nan nan nan nan nan nan -22 nan nan nan nan -47 -31 -31 -17 -17 -41 -41 -83 -56 -56 -35 -55 -60 -60 -59 -65 -53 -53 -42 -31 -11 -1 -1 -0 -0 -0 -0 -0 -2 -2 -5 -4 -4 -4 -3 -2 -1 -1 -1 -1 -1 -1 -1 -2 -3 -5 -5 -6 -6 -6 -6 -6 -6 -6 -5
nan nan nan nan nan nan nan nan nan nan nan nan nan nan nan nan nan nan nan nan nan nan nan nan nan nan -20 -24 nan nan nan -62 -36 -36 -24 -31 -73 -73 nan -93 -93 -50 -59 -63 -63 -62 -56 -49 -49 -45 -22 -1 -1 -1 -0 -0 -0 -0 -0 -2 -2 -2 -0 -0 -0 -0 -0 -0 -0 -0 -1 -2 -2 -2 -2 -3 -5 -5 -6 -5 -5 -4 -3 -3 -3 -2
nan nan nan nan nan nan nan nan nan nan nan nan nan nan nan nan nan nan nan nan nan nan nan -16 -16 -17 -19 -18 nan nan nan nan -52 -52 -40 -52 nan nan nan -94 -94 -41 -36 -35 -35 -38 -30 -24 -24 -12 -3 -0 -0 -0 -0 -0 -0 -0 -0 -0 -0 -0 -0 -0 -0 -0 -0 -0 -2 -2 -4 -4 -4 -4 -3 -3 -3 -3 -3 -3 -3 -2 -2 -2 -2 -2
nan nan nan nan nan nan nan nan nan nan nan nan nan nan nan nan nan nan nan nan nan nan -19 -12 -12 nan nan nan nan nan nan nan -55 -55 -50 -51 nan nan nan -54 -54 -20 -14 -13 -13 -18 -12 -11 -11 -7 -2 -2 -2 -2 -0 -0 -0 -0 -0 -0 -0 -0 -0 -0 -0 -0 -0 -4 -5 -5 -5 -5 -4 -4 -3 -3 -3 -3 -2 -1 -1 -1 -1 -1 -1 -1
nan nan nan nan nan nan nan nan nan nan nan nan nan nan nan nan nan nan nan nan nan nan nan nan nan nan nan nan nan nan nan nan nan nan -41 -41 -53 -53 nan -47 -47 -15 -6 -11 -11 -19 -15 -13 -13 -13 -4 -2 -2 -2 -0 -0 -0 -0 -0 -0 -0 -0 -0 -0 -0 -0 -5 -6 -6 -6 -4 -3 -2 -2 -3 -3 -2 -2 -2 -2 -2 -2 -2 -1 -1 -1
nan nan nan nan nan nan nan nan nan nan nan nan nan nan nan nan nan nan nan nan nan nan nan nan nan nan nan nan nan nan nan nan -31 -31 -21 -15 -28 -28 nan -61 -61 -23 -12 -23 -23 -37 -32 -22 -22 -18 -7 -2 -0 -0 -0 -0 -0 -0 -0 -0 -0 -0 -0 -0 -0 -0 -2 -5 -2 -2 -1 -0 -2 -2 -5 -4 -3 -3 -3 -3 -3 -2 -2 -1 -1 -1
nan nan nan nan nan nan nan nan nan nan -17 nan nan nan nan nan nan nan nan nan nan nan nan nan nan nan nan nan nan nan nan nan -30 -30 -11 -4 -20 -20 -59 -60 -60 -33 -26 nan nan nan -44 -25 -25 -15 -5 -0 -0 -0 -0 -0 -0 -0 -3 -2 -2 -0 -0 -0 -0 -0 -0 -0 -0 -0 -0 -0 -0 -0 -0 -1 -1 -1 -1 -1 -1 -1 -1 -0 -0 -0
nan nan nan nan nan nan nan nan nan nan nan nan nan nan nan nan nan nan nan nan nan nan nan nan nan nan nan nan nan nan nan -39 -24 -24 -6 -6 -22 -22 -49 -46 -46 -27 -30 nan nan nan -36 -20 -20 -14 -6 -0 -0 -0 -0 -0 -0 -0 -4 -5 -5 -1 -0 -0 -0 -0 -0 -0 -0 -0 -0 -0 -1 -1 -1 -0 -0 -0 -0 -0 -0 -0 -0 -0 -0 -0
nan nan nan nan nan -10 nan nan nan nan nan nan nan nan nan -7 -7 -7 nan nan nan nan nan nan nan nan nan -5 -14 -14 -31 -35 -26 -26 -11 -9 -25 -25 -42 -40 -40 -21 -26 nan nan nan -27 -15 -15 -13 -11 -4 -0 -0 -0 -0 -0 -1 -5 -10 -10 -1 -0 -0 -0 -0 -0 -0 -0 -0 -1 -2 -3 -3 -2 -2 -1 -1 -0 -0 -0 -0 -0 -0 -0 -0
-5 -8 -9 -6 -6 -0 -0 -0 -0 -0 -3 -8 nan nan nan nan nan nan nan nan nan nan nan nan nan nan nan nan -15 -15 nan nan -37 -37 -22 -16 -26 -26 nan -35 -35 -25 -23 -34 -34 -32 -16 -13 -13 -17 -18 -12 -1 -1 -2 -0 -0 -1 -6 -12 -12 -2 -0 -0 -0 -0 -0 -1 -1 -1 -2 -3 -2 -2 -2 -1 -1 -1 -0 -0 -0 -0 -0 -0 -0 -0
-0 -0 -0 -0 -0 -0 -0 -0 -0 -0 -0 -0 -4 -4 nan nan nan nan nan nan nan nan nan nan nan nan nan nan -21 -21 nan nan nan nan -36 -13 -8 -8 -24 -29 -29 -18 -14 -21 -21 -22 -11 -10 -10 -17 -24 -30 -11 -11 -3 -2 -2 -2 -4 -7 -7 -0 -0 -0 -0 -0 -0 -1 -1 -1 -1 -1 -1 -1 -1 -0 -0 -0 -0 -0 -0 -0 -0 -0 -0 -0
-0 -0 -0 -0 -0 -0 -0 -0 -0 -0 -0 -0 -0 -0 -0 nan nan nan nan nan nan nan nan nan nan nan nan nan nan nan nan nan nan nan nan -18 -4 -4 -19 -29 -29 -18 -11 -17 -17 -22 -8 -14 -14 -27 -35 -44 -36 -36 -9 -3 -3 -3 -3 -4 -4 -0 -0 -0 -0 -0 -0 -0 -0 -0 -0 -0 -0 -0 -0 -0 -0 -0 -0 -0 -0 -0 -0 -0 -0 -1
-0 -0 -0 -0 -0 -0 -0 -0 -0 -0 -0 -0 -0 -0 -0 nan nan nan nan nan nan nan nan nan nan nan nan nan nan nan nan -30 nan nan nan -18 -6 -6 -33 -30 -30 -21 -18 -28 -28 -42 -33 -37 -37 -49 -45 -37 nan nan -25 -5 -5 -2 -2 -5 -5 -3 -3 -2 -2 -0 -0 -0 -0 -0 -0 -0 -0 -0 -0 -0 -0 -0 -0 -0 -0 -0 -0 -0 -0 -1
-0 -0 -0 -0 -0 -0 -0 -0 -0 -0 -0 -0 -0 -0 -0 -0 nan nan nan nan nan nan nan nan nan nan nan nan nan nan nan nan nan nan nan -20 -8 -8 -42 -30 -30 -23 -29 -36 -36 -31 -41 nan nan nan nan -31 nan nan nan nan nan -39 -10 -4 -4 -7 -8 -5 -5 -2 -0 -0 -0 -0 -0 -0 -0 -0 -0 -0 -0 -0 -0 -0 -0 -0 -0 -1 -1 -1
-8 -6 -3 -1 -1 -1 -1 -3 -1 -1 -0 -0 -0 -0 -0 -1 -23 -23 nan nan nan nan nan nan nan nan nan nan nan nan nan nan nan nan nan nan nan nan nan nan nan nan nan -27 -27 -13 -20 -44 -44 -65 nan nan nan nan nan nan nan nan nan nan nan nan -24 -26 -26 -3 -0 -0 -0 -0 -0 -0 -0 -0 -0 -0 -0 -0 -0 -0 -0 -0 -0 -1 -1 -1
-12 -13 -13 -12 -12 -10 -6 -5 -6 -6 -6 -6 -5 -5 -3 -3 -3 -3 nan nan nan nan nan nan nan nan nan nan nan nan nan nan nan nan nan nan nan nan nan nan nan nan nan -23 -23 -8 -6 -10 -10 nan nan nan nan nan nan nan nan nan nan nan nan nan nan -0 -0 -0 -0 -0 -0 -0 -0 -0 -0 -0 -0 -0 -0 -0 -0 -0 -0 -0 -0 -0 -0 -1
-10 -12 -12 -11 -11 -8 -7 -7 -8 -8 -9 -11 -12 -12 -11 -7 -4 -4 -4 nan nan nan nan nan nan nan nan nan nan nan nan nan nan nan nan nan nan nan nan nan nan nan -19 -16 -16 -8 -4 -6 -6 -20 nan nan nan nan nan nan nan nan nan nan nan nan nan -0 -0 -0 -0 -0 -0 -0 -0 -0 -0 -0 -0 -0 -0 -0 -0 -0 -0 -0 -0 -0 -0 -1
-6 -7 -8 -7 -7 -4 -4 -6 -9 -9 -14 -18 -15 -15 nan nan -7 -7 -5 -5 -5 nan nan nan nan nan nan nan nan nan nan nan nan nan -27 nan nan nan nan nan nan nan -18 -16 -16 -9 -6 -5 -5 -7 -22 nan nan nan nan nan nan nan nan nan nan nan nan -1 -1 nan -0 -1 nan nan -1 -1 -0 -0 -0 -0 -0 -0 -0 -0 -0 -0 -0 -0 -0 -1
-4 -4 -6 -5 -5 -2 -3 -8 -12 -12 nan nan nan nan nan nan nan nan nan nan nan nan nan nan nan nan nan nan nan nan nan nan nan nan -19 nan nan nan nan nan nan nan nan -16 -16 -12 -8 -7 -7 -4 -12 nan nan nan nan nan nan nan nan nan nan nan nan nan nan -0 -0 -0 nan nan nan nan -1 -1 -0 -0 -0 -0 -0 -0 -0 -0 -0 -0 -0 -2
-3 -4 -5 -6 -6 -7 -4 -4 -3 -3 -6 nan nan nan nan nan nan nan nan nan nan nan -5 nan nan nan nan nan nan nan nan nan nan nan -24 nan nan nan nan nan nan nan nan -10 -10 -7 -7 -7 -7 -6 -4 -15 nan nan nan nan nan nan nan nan nan nan nan nan nan nan nan -0 -0 -0 nan nan -0 -0 -0 -0 -0 -0 -0 -0 -0 -0 -0 -0 -0 -6
-2 -3 -6 -9 -9 -8 -5 -6 -5 -5 -5 -6 nan nan nan nan nan nan nan nan nan nan nan -4 -4 -6 -6 nan nan nan nan nan nan nan nan -21 nan nan -4 -6 -6 -10 -10 -5 -5 -3 -3 -2 -2 -5 -4 -7 nan nan nan nan nan nan nan nan nan nan nan nan nan -0 -0 -0 -0 -0 -1 -0 -0 -0 -0 -0 -0 -0 -0 -0 -0 -0 -0 -0 -0 -0
-2 -3 -7 -11 -11 nan nan nan -5 -5 -4 -4 -5 -5 nan nan nan nan nan nan nan nan nan nan nan nan -4 -5 nan nan nan nan nan nan nan -11 nan nan nan -3 -3 -4 -6 -5 -5 -3 -1 -1 -1 -2 -5 nan nan nan nan nan nan nan nan nan nan nan nan nan nan nan -0 -0 -0 -0 -0 -0 nan nan nan -0 -0 -0 -0 -0 -0 -0 -0 nan nan -0
nan nan nan nan nan nan nan nan nan nan -5 -4 -6 -6 nan nan nan nan nan nan nan nan nan nan nan nan nan nan -6 -6 -8 nan nan nan nan nan nan nan -0 -1 -1 -4 -6 -6 -6 -2 -0 -1 -1 -4 -8 nan nan nan nan nan nan nan nan nan nan nan nan nan nan nan -0 -0 -0 -0 -0 nan nan nan nan nan nan nan nan nan nan -0 -0 nan nan nan
-6 nan nan -6 -6 nan nan nan nan nan nan -3 -3 -3 -4 nan nan nan nan nan nan nan nan nan nan nan nan nan -5 -5 -5 -6 -5 -5 -3 -3 nan nan -1 -1 -1 -2 -3 -3 -3 -1 -1 -1 -1 -3 -5 nan nan nan nan nan nan nan -0 nan nan nan nan nan nan nan nan nan -0 -0 nan nan nan nan nan nan nan nan nan nan nan nan nan nan nan nan
-3 -8 -8 -7 -7 -5 -4 nan nan nan nan -1 -1 -1 -1 -1 -1 -1 -1 nan nan -3 nan nan nan nan nan nan nan nan nan nan nan nan nan nan nan nan nan -1 -1 -1 -1 -1 -1 -1 -1 nan nan nan nan nan nan nan nan nan nan -0 -0 nan nan nan nan nan nan nan nan nan nan nan -0 nan nan nan nan nan nan nan nan nan nan nan nan nan nan nan
-1 -2 -5 -4 -4 -3 -2 nan nan nan -2 -1 -0 -0 -1 -1 -1 -1 -0 -0 -0 -1 -2 -1 -1 -1 -1 -1 nan nan nan nan nan nan nan nan nan nan nan nan nan nan -0 nan nan nan nan nan nan nan nan nan nan nan nan nan nan nan nan nan nan nan nan nan nan nan nan nan nan nan -0 nan nan nan nan nan nan nan nan nan nan nan nan nan nan nan
-1 -3 nan nan nan -2 -0 -0 -0 -0 -0 -0 -0 -0 -1 -2 -1 -1 -0 -1 -1 -1 -2 -2 -2 -1 -0 nan nan nan nan nan nan nan nan nan nan nan nan nan nan nan -0 -0 -0 nan nan nan nan nan nan nan nan nan nan nan nan nan nan nan nan nan nan nan nan nan nan nan nan nan nan nan nan nan nan nan nan nan nan nan nan -0 nan nan nan nan
-1 nan nan nan nan nan -1 -0 -0 -0 -0 -0 -0 -0 nan nan -0 -0 -0 nan nan nan nan nan nan nan nan nan nan nan nan nan nan nan nan -0 nan nan nan nan nan nan nan nan nan nan nan nan nan nan nan nan nan nan nan nan nan nan nan nan nan nan nan nan nan nan nan nan nan nan nan nan nan nan nan nan nan nan nan nan nan nan nan nan nan nan
-1 nan nan nan nan nan nan nan nan nan nan nan -0 -0 nan nan -0 -0 -0 nan nan nan nan nan nan nan nan nan nan nan nan nan nan nan nan -0 -0 -0 nan nan nan nan nan nan nan nan nan nan nan nan nan nan nan nan nan nan nan nan nan -0 -0 nan nan nan nan nan nan nan nan nan nan nan nan nan nan nan nan nan nan nan nan nan nan nan nan nan
-1 nan nan nan nan nan nan nan nan nan nan nan nan nan nan -0 -0 -0 -0 nan nan nan nan nan nan nan nan nan nan nan nan nan nan nan nan nan nan nan -0 nan nan nan nan nan nan nan nan nan nan nan nan nan nan nan nan nan nan nan nan nan nan nan nan nan nan nan nan nan nan nan nan nan nan nan nan nan nan nan nan nan nan nan nan nan nan nan
-1 nan nan nan nan nan nan nan nan nan nan nan nan nan nan nan nan nan nan nan nan nan nan nan nan nan nan nan nan nan nan nan nan nan nan nan nan nan nan nan nan -1 nan nan nan nan nan nan nan nan nan nan nan nan nan nan nan nan nan nan nan nan nan nan nan nan nan nan nan nan nan nan nan nan nan nan nan nan nan nan nan nan nan nan nan nan
-0 nan nan nan nan nan nan nan nan nan nan nan nan nan nan nan nan nan nan nan nan nan nan nan nan nan nan nan nan nan nan nan nan nan nan nan nan nan nan nan nan nan nan nan nan nan nan nan nan nan nan nan nan nan nan nan nan nan nan nan nan nan nan nan nan nan nan nan nan nan nan nan nan nan nan nan nan nan nan nan nan nan nan nan nan nan
-1 nan nan nan nan nan nan nan nan nan nan nan nan nan nan -0 -0 -0 nan nan nan nan nan nan nan nan nan nan nan nan -0 nan nan nan nan nan nan nan nan nan nan nan nan nan nan nan nan nan nan nan nan nan nan nan nan nan nan nan nan nan nan nan nan nan nan nan nan nan nan nan nan nan nan nan nan nan nan nan nan nan nan nan nan nan nan nan
-1 -1 -1 nan nan nan nan nan nan nan nan nan nan nan nan nan nan nan nan nan nan nan nan nan nan nan nan nan nan nan nan nan nan nan nan nan nan nan nan nan nan nan nan nan nan nan nan nan nan -1 -0 -0 nan nan nan nan nan nan nan nan nan nan nan nan nan nan nan nan nan nan nan nan nan nan nan nan nan nan nan nan nan nan nan nan nan nan
-1 -1 nan nan nan nan nan nan nan nan nan nan nan nan nan nan nan nan nan nan nan nan nan nan nan nan nan nan nan nan -2 nan nan nan nan nan nan nan nan nan nan nan nan nan nan nan nan nan nan nan -0 -0 -0 -0 nan nan nan nan nan nan nan nan nan nan nan nan -0 nan nan nan nan nan nan nan nan nan nan nan nan nan nan nan nan nan nan nan
Wind_Speed
11 11 11 12 11 10 11 13 14 14 13 12 11 11 11 12 12 13 14 15 15 14 14 14 15 16 18 23 26 29 31 33 34 35 36 37 37 37 37 37 37 37 38 39 39 39 38 37 37 36 35 35 34 34 34 35 35 35 35 34 34 34 34 34 35 35 34 34 34 34 34 33 31 28 27 27 27 28 28 28 27 26 25 25 25 26
11 11 10 12 13 13 13 14 15 14 14 13 12 12 12 13 13 12 12 13 14 14 13 13 14 16 18 20 24 28 31 33 34 35 36 37 37 37 37 37 37 37 37 38 39 39 38 38 37 36 36 35 35 35 35 35 35 36 36 35 35 35 35 35 35 35 35 35 35 35 35 33 30 28 26 26 26 27 27 28 28 27 27 27 27 28
11 11 10 11 13 14 14 14 14 14 15 14 13 13 15 15 14 12 11 12 12 12 11 12 13 14 17 18 22 27 30 33 35 36 37 38 38 38 37 37 37 37 37 38 38 39 39 38 38 37 37 36 36 35 35 35 36 36 36 36 36 36 36 36 36 36 36 35 35 35 34 33 31 29 27 26 26 26 26 26 26 26 27 27 28 29
11 11 11 10 11 13 13 13 14 13 13 13 14 15 16 15 13 12 12 12 11 11 11 12 13 13 14 15 19 24 29 32 35 36 38 38 38 38 38 37 37 37 37 38 39 39 39 39 38 38 38 37 37 36 36 36 36 36 36 36 36 36 36 36 36 36 35 35 35 34 34 33 31 30 29 28 27 27 26 25 25 24 25 26 27 28
10 10 11 10 11 12 13 13 13 13 12 13 14 14 14 13 12 12 12 12 12 12 11 11 12 13 13 13 16 21 27 31 33 35 36 37 38 38 38 38 37 38 38 38 39 39 39 39 39 39 39 39 38 37 37 36 36 36 36 36 36 36 36 36 36 36 35 35 34 34 33 32 31 31 30 30 29 28 27 26 26 25 25 25 26 26
10 10 10 10 10 10 11 11 11 11 11 11 12 12 12 11 11 11 11 12 12 12 11 11 12 12 13 13 16 20 25 29 31 33 34 35 36 37 38 38 38 38 38 39 39 39 39 40 40 40 40 40 39 38 38 37 37 36 36 36 36 36 36 36 36 35 35 34 34 33 33 32 31 31 30 30 30 29 29 28 28 27 27 27 27 27
11 10 10 10 10 9 10 10 11 11 10 11 11 11 11 11 11 11 11 11 11 11 11 12 12 12 12 13 16 19 21 24 27 29 31 33 35 36 38 39 39 39 39 39 39 39 40 40 40 40 41 40 40 39 38 38 37 37 36 36 36 36 36 36 36 35 34 34 33 33 33 32 31 31 30 30 30 30 30 30 30 30 29 29 29 28
12 11 10 10 10 9 10 10 11 11 10 10 11 11 11 11 11 11 11 11 11 10 11 12 12 12 11 12 13 14 15 17 19 21 24 27 30 33 35 37 38 38 38 38 39 39 40 40 40 41 41 41 40 40 39 38 38 37 37 36 36 36 36 36 36 35 35 34 34 33 33 33 32 31 30 30 30 30 30 31 31 31 31 30 30 30
14 13 12 11 11 10 11 11 11 11 10 10 11 11 11 11 11 11 11 11 11 10 10 11 12 12 11 10 11 12 13 14 14 15 17 18 21 25 29 31 33 35 36 37 38 39 40 40 40 40 40 40 40 39 39 38 38 37 37 36 36 36 36 37 36 36 36 35 35 35 34 34 33 33 32 31 31 31 31 31 31 32 31 31 30 30
14 14 13 12 11 11 11 12 11 11 11 11 11 11 11 12 12 12 12 12 11 10 10 11 12 12 11 10 10 11 13 15 18 20 22 21 22 24 25 26 27 29 34 36 37 39 39 39 39 39 40 40 39 39 39 38 38 37 37 36 36 36 37 37 37 37 37 36 36 36 36 36 35 34 33 33 32 32 31 31 31 31 31 31 31 30
13 13 12 12 11 10 11 11 11 10 10 11 11 11 11 11 11 11 13 13 12 11 11 11 11 11 11 10 10 10 11 12 15 18 21 23 25 26 26 26 27 29 33 35 36 38 38 38 39 39 39 39 39 39 39 38 38 37 37 37 37 37 37 38 38 37 37 37 37 37 37 37 36 36 35 34 33 32 31 31 30 30 30 30 30 30
12 11 10 10 10 10 10 10 10 9 9 10 10 11 11 10 10 10 12 12 12 12 12 11 10 10 11 11 10 9 10 10 10 11 12 15 17 19 20 21 23 26 28 30 31 33 35 36 36 36 36 37 37 38 38 37 37 37 37 37 37 38 38 38 38 38 38 38 38 38 37 37 37 36 36 35 34 33 32 31 30 29 29 29 29 30
11 10 10 10 11 11 10 10 9 9 9 9 10 11 10 9 9 9 10 11 12 12 12 11 11 11 11 10 9 9 10 10 10 10 9 10 11 11 12 13 15 16 17 19 20 21 26 29 31 31 32 33 34 35 36 35 36 36 37 37 38 38 38 39 39 38 38 38 38 38 37 37 37 36 36 35 35 34 32 31 30 29 28 28 28 29
11 11 11 11 12 11 11 11 11 11 11 10 11 11 10 9 9 9 10 11 11 11 11 12 12 11 10 10 10 9 9 9 9 10 10 10 10 9 9 11 12 12 12 12 13 15 18 20 21 23 26 28 30 31 31 32 34 35 36 37 37 38 38 39 39 39 38 38 38 37 37 36 36 36 35 35 34 33 32 31 30 29 28 28 28 28
12 12 12 13 13 12 11 11 12 12 12 11 11 10 10 10 10 10 11 12 11 11 11 12 12 11 10 10 9 9 9 8 8 9 11 11 10 9 10 11 11 11 11 12 12 13 15 15 15 16 18 22 24 26 27 29 31 33 34 35 36 37 38 38 38 38 38 38 37 36 36 35 34 34 34 34 34 33 32 31 30 29 28 28 28 29
12 12 13 14 14 13 12 11 11 12 12 11 10 10 10 10 10 10 11 12 11 10 10 11 11 11 9 9 9 9 9 8 8 9 11 11 10 9 10 10 11 11 11 12 12 13 13 13 14 15 16 20 24 27 29 30 31 33 34 34 35 35 36 37 37 37 37 37 36 35 34 33 33 33 33 33 33 32 31 30 30 29 29 29 29 29
13 13 14 14 14 14 12 11 11 11 11 10 10 9 9 9 10 10 11 11 10 9 9 10 10 10 8 8 8 8 8 7 7 7 10 10 10 9 9 9 10 11 11 12 12 13 12 13 13 14 15 20 24 28 31 32 33 34 34 34 33 33 34 34 35 35 35 35 34 33 33 32 32 32 32 32 32 32 31 30 30 30 30 30 29 29
13 13 13 14 14 13 12 12 11 11 9 10 10 10 9 9 9 10 11 11 10 10 10 10 10 9 8 8 7 6 7 7 6 6 7 8 8 7 8 8 8 10 10 11 12 12 12 12 12 13 15 22 26 29 32 33 34 35 34 33 31 31 31 31 32 32 32 32 32 32 31 31 31 31 31 31 31 31 31 30 30 30 30 30 30 29
14 13 13 13 13 12 12 12 11 11 9 9 8 9 11 11 11 11 11 10 10 10 10 10 10 10 10 9 8 7 6 6 6 6 6 7 7 6 6 6 7 8 9 10 11 11 11 12 14 17 20 24 27 30 32 33 34 34 33 32 31 30 29 29 29 28 29 29 30 30 31 31 31 31 31 31 31 30 30 30 30 30 30 30 29 29
15 14 13 13 12 12 13 13 12 12 11 10 9 9 10 10 11 11 11 11 10 10 10 11 11 11 11 11 11 9 7 7 7 7 7 7 8 7 6 6 7 8 9 9 9 10 11 12 14 17 21 24 26 28 29 30 31 31 31 30 30 29 29 28 27 27 27 28 28 29 30 30 31 31 31 30 30 30 30 30 30 29 29 29 28 28
15 15 15 12 10 10 11 12 13 14 14 12 10 9 9 10 11 12 12 11 11 11 10 11 11 11 10 11 11 10 8 7 7 6 6 7 8 8 6 7 7 8 10 10 10 10 11 12 12 13 17 22 25 26 27 28 28 28 27 28 28 29 29 28 27 26 26 26 27 28 28 28 28 27 27 27 27 28 28 28 28 28 28 28 28 28
16 16 17 16 14 12 13 13 15 16 16 13 10 9 9 10 11 12 11 11 11 11 12 12 12 11 10 11 11 10 9 8 7 7 6 7 9 9 7 7 8 9 11 11 10 11 11 12 12 14 17 22 25 26 27 28 27 26 24 25 26 28 29 28 27 26 25 25 24 24 23 22 21 21 21 21 22 23 24 25 25 26 26 26 27 27
18 18 19 19 18 17 16 15 15 16 16 14 13 12 8 10 11 11 11 11 11 11 11 11 11 11 11 12 11 11 11 10 9 7 6 9 10 10 8 7 8 9 11 10 10 11 11 11 12 13 17 23 26 27 29 29 27 25 23 24 25 27 29 28 26 25 23 22 21 20 18 17 16 16 17 18 19 20 21 22 23 23 24 25 26 26
19 20 20 19 18 17 15 15 14 14 13 13 13 12 12 12 12 12 10 11 11 10 9 10 11 11 12 13 13 13 12 11 9 8 7 8 9 9 8 7 8 10 11 10 10 11 11 11 11 11 13 19 24 27 29 28 27 25 22 23 24 26 27 27 25 23 22 20 19 18 17 17 17 17 18 19 20 21 21 22 23 23 24 25 25 26
19 19 18 18 19 20 19 18 17 17 15 14 13 12 13 14 14 14 13 12 12 11 10 11 12 12 12 12 12 12 11 10 9 8 7 7 7 8 8 8 8 10 10 10 10 11 11 11 11 10 11 15 20 25 27 27 26 25 22 22 23 24 25 25 24 22 21 20 20 19 19 19 19 20 21 22 23 23 23 23 24 24 24 25 25 25
25 24 24 26 28 30 31 31 30 28 26 21 16 13 12 12 12 12 11 11 11 11 11 12 13 13 11 11 11 11 10 9 9 8 6 5 6 7 8 8 9 9 10 10 10 10 11 11 10 10 10 12 16 21 24 26 26 25 24 23 23 23 24 24 24 23 22 22 22 22 22 22 22 22 23 24 25 25 25 25 25 25 25 25 25 25
38 38 39 39 40 40 41 40 40 39 38 34 27 21 16 13 11 11 11 11 11 10 11 12 13 13 12 11 11 10 9 8 8 8 7 5 6 7 8 8 9 10 11 10 9 9 11 11 10 10 10 10 12 15 21 24 25 25 25 24 24 24 25 25 25 25 24 24 24 24 24 24 23 24 24 25 26 26 26 25 25 25 25 23 22 21
42 43 44 44 44 44 44 44 44 43 43 41 39 35 26 17 14 13 13 11 11 10 11 12 12 12 11 11 10 10 9 8 8 7 6 5 5 6 7 7 8 9 9 8 8 9 11 11 10 10 10 10 11 12 17 21 23 24 24 24 24 25 25 25 26 25 25 25 25 25 25 25 25 25 25 25 26 26 26 26 25 24 23 20 16 14
33 36 38 40 42 43 44 44 43 43 43 43 43 40 32 21 16 14 13 11 11 11 12 12 12 11 11 10 9 9 10 9 9 7 6 5 5 5 6 6 7 8 7 6 6 7 9 9 9 9 9 11 11 11 12 15 17 19 20 21 22 23 23 24 24 24 24 25 25 25 25 25 25 25 25 26 26 26 26 26 25 22 18 15 14 13
20 23 26 29 31 33 34 34 35 36 39 42 42 40 32 22 17 15 13 12 11 11 12 12 12 12 10 9 8 9 9 9 8 7 5 5 5 5 5 6 7 7 6 5 5 6 7 7 7 8 8 10 11 10 9 10 10 10 11 14 16 17 19 20 20 21 23 23 24 25 25 25 25 25 26 26 26 26 26 26 24 19 13 12 12 13
17 17 17 18 19 20 21 21 23 25 29 33 34 33 28 21 17 15 13 12 12 12 12 12 12 12 11 8 8 8 8 7 7 6 5 4 4 5 5 6 7 6 5 5 5 5 6 6 6 6 5 6 7 7 6 6 6 5 5 6 7 10 13 15 16 18 19 21 22 23 24 25 25 25 25 25 25 25 25 26 23 19 12 11 12 13
16 16 15 15 14 14 14 14 15 16 18 20 21 22 21 20 18 16 13 12 12 11 12 12 13 12 11 10 10 9 8 7 6 7 6 4 4 5 5 6 6 6 6 6 6 6 6 6 5 4 2 3 3 4 4 4 3 3 3 3 4 6 9 11 12 13 14 17 19 21 22 23 24 24 25 25 25 25 24 25 23 19 13 12 13 14
15 14 13 13 13 13 12 12 12 12 13 13 14 15 16 17 17 16 14 12 11 11 11 12 12 12 12 12 12 11 10 8 8 8 8 5 4 4 5 6 7 7 7 7 7 6 6 7 7 5 3 2 2 2 3 3 3 3 3 3 4 5 7 7 8 9 10 12 14 16 19 20 22 22 23 23 23 23 23 24 23 20 17 13 13 14
14 14 13 13 13 12 12 12 12 12 12 12 12 13 13 13 14 14 14 13 12 11 11 11 11 11 11 12 12 12 12 11 10 10 10 6 5 5 6 7 8 8 8 7 7 7 6 8 8 7 5 3 3 3 3 4 4 4 3 4 4 4 4 5 5 6 7 8 8 9 12 13 15 17 19 20 20 21 21 22 22 21 19 15 14 14
12 13 13 12 11 11 12 12 12 12 11 11 11 12 12 11 12 12 13 12 12 12 11 11 11 11 11 11 11 12 12 11 11 11 11 8 6 6 6 8 9 9 8 8 7 7 6 8 9 9 6 4 3 3 3 4 4 4 3 4 4 4 4 4 4 5 5 6 6 6 7 7 8 10 12 14 16 17 19 19 20 19 17 16 15 14
11 12 11 11 11 11 11 11 11 11 11 11 10 11 11 11 11 11 11 12 12 12 13 12 12 12 12 12 12 12 13 11 10 11 11 9 8 7 7 8 9 9 9 9 8 7 7 8 9 9 8 6 4 3 3 3 3 3 3 4 4 4 4 4 4 4 5 5 6 6 5 5 6 7 8 12 14 15 17 18 17 16 14 12 12 12
11 11 11 10 10 10 11 11 10 10 10 10 10 10 10 11 11 11 11 11 12 12 12 13 13 14 14 14 13 13 13 11 10 10 11 9 8 8 7 8 9 9 9 9 9 8 8 8 8 8 8 8 6 4 3 3 3 4 4 4 4 3 3 4 4 4 4 6 6 6 6 6 6 6 7 10 12 13 14 15 15 13 11 9 8 7
10 11 11 10 9 9 10 10 10 10 10 10 10 10 10 11 11 12 11 11 12 12 12 12 12 14 17 17 17 16 15 14 13 13 13 11 9 8 8 8 9 10 10 9 9 9 8 8 8 8 7 7 6 5 3 3 4 4 4 3 3 3 3 3 4 4 4 5 6 6 6 6 5 5 6 7 7 7 8 9 9 9 8 7 6 5
10 10 11 10 10 9 9 10 11 10 10 10 10 9 9 10 11 12 11 11 12 12 13 12 12 12 16 18 19 19 18 17 17 16 15 13 11 9 9 9 10 10 10 10 10 10 10 9 10 9 8 6 5 4 3 4 4 4 3 2 2 3 3 3 3 3 4 4 5 6 5 5 4 4 4 4 4 4 4 5 5 5 5 5 4 4
10 10 10 10 10 9 10 11 11 11 10 10 9 9 8 8 8 9 11 10 11 11 13 13 12 12 13 14 16 18 19 17 16 16 15 14 12 11 10 10 10 10 10 10 11 11 11 11 11 11 10 7 4 3 3 3 4 4 4 2 2 2 2 2 2 2 2 3 4 4 4 4 4 4 4 4 3 4 4 3 3 3 3 2 3 3
10 10 9 9 9 10 11 11 11 10 10 9 8 7 7 7 7 7 8 9 9 10 10 11 11 11 12 12 13 13 13 11 10 10 10 10 10 10 9 10 9 9 9 9 9 9 9 9 9 8 8 6 4 3 3 3 4 4 4 3 2 2 2 2 2 2 2 3 3 4 4 4 4 4 4 3 3 3 2 2 1 1 2 2 2 2
10 10 9 9 9 9 9 10 10 10 10 8 8 7 7 7 6 6 7 8 8 9 9 9 9 10 10 10 8 5 3 2 2 3 4 5 6 7 8 8 8 7 7 7 7 7 7 7 6 6 5 4 3 3 2 2 2 2 2 1 1 1 2 2 2 1 2 2 3 3 4 4 3 3 3 2 1 1 1 1 2 3 3 2 2 2
9 9 9 9 9 9 9 10 9 8 7 7 7 7 7 7 7 7 8 8 8 8 8 8 8 7 7 5 3 2 2 1 1 2 2 3 4 6 7 8 8 8 7 6 6 6 5 5 3 2 2 2 3 3 3 2 2 1 1 1 1 1 1 1 2 2 2 3 3 3 3 3 3 3 2 1 0 1 2 3 4 5 4 3 2 2
9 9 8 8 8 8 8 7 7 6 5 5 5 5 4 4 5 6 6 5 5 5 5 4 4 4 4 2 2 2 1 0 1 2 3 4 4 4 4 6 7 7 7 7 5 4 1 1 0 0 1 2 3 3 3 2 2 2 1 2 2 1 1 1 2 3 3 3 3 3 3 3 3 2 1 0 2 2 3 3 4 4 4 3 3 3
8 8 7 7 6 6 6 6 5 5 4 4 3 3 2 2 2 3 3 2 2 2 2 2 2 2 2 1 2 1 1 1 2 2 3 5 6 6 4 3 2 2 2 2 1 1 1 1 1 1 2 3 3 3 3 2 2 2 2 3 2 2 1 1 2 3 3 3 3 3 3 3 3 1 0 2 3 4 4 4 4 4 4 4 4 4
8 7 7 6 6 6 7 6 5 4 4 4 3 3 2 2 2 2 2 2 2 2 2 1 1 1 1 2 2 1 1 2 2 3 3 4 5 5 5 5 4 4 3 3 3 3 3 2 2 2 2 3 4 4 3 3 3 3 2 3 2 2 2 2 2 2 3 3 3 3 4 3 2 1 2 3 4 5 5 5 5 5 5 4 4 5
8 7 7 6 6 6 6 5 5 4 4 4 3 3 2 2 2 2 2 2 2 1 0 1 1 2 2 2 2 2 2 2 2 3 3 3 4 4 4 5 5 6 5 6 6 6 5 5 4 3 3 4 4 4 4 4 3 3 3 2 2 2 2 2 2 3 3 3 3 3 4 3 2 1 3 4 5 5 5 6 6 6 5 5 5 6
8 7 7 6 6 6 5 5 5 4 4 4 3 3 3 3 3 2 1 1 1 1 2 2 3 3 3 3 2 2 3 3 2 2 3 3 3 3 4 3 4 5 6 7 7 8 7 8 7 7 6 5 4 4 4 4 4 3 3 3 2 2 2 3 3 3 3 3 4 4 4 3 2 2 3 5 5 6 6 6 7 6 6 6 6 7
8 7 7 6 6 6 6 5 5 5 5 4 4 4 4 4 5 4 3 3 2 3 3 3 3 3 3 3 3 3 3 3 2 2 2 2 2 2 2 2 2 3 4 5 6 7 7 9 10 10 9 7 5 4 4 4 4 3 3 3 3 3 3 3 3 4 4 4 5 5 4 3 2 2 3 6 7 7 7 7 7 7 7 7 7 8
8 7 7 6 6 6 6 6 5 5 5 5 5 4 4 4 4 4 4 3 3 3 3 3 3 3 3 3 3 3 3 2 2 2 2 2 2 2 2 1 1 1 2 3 3 4 5 6 9 11 14 13 10 7 4 4 4 3 3 3 3 3 3 3 4 4 4 4 5 5 4 4 3 3 3 6 7 8 8 8 8 8 8 7 8 9
8 7 7 7 6 6 6 6 5 6 5 5 5 5 4 4 4 4 4 4 4 3 3 3 3 4 4 3 3 3 3 2 2 2 2 1 1 1 1 1 1 1 1 1 2 2 3 4 5 8 12 16 16 13 6 5 4 4 4 4 4 3 3 4 4 4 5 5 4 4 4 4 4 3 4 5 7 8 9 8 8 8 8 8 8 10
Wind_Direction
278 280 281 281 282 282 280 278 279 280 281 280 280 279 280 278 276 275 275 275 275 275 275 275 275 276 276 276 276 276 275 274 273 272 270 269 267 266 265 264 264 264 264 266 267 268 270 270 271 271 271 271 271 272 272 272 272 272 271 271 270 270 270 270 271 271 270 268 266 266 266 268 268 266 263 259 256 253 251 250 249 248 247 247 247 247
277 280 280 282 283 282 281 280 279 279 280 281 280 280 279 278 277 275 274 272 271 271 271 272 273 273 274 275 276 276 276 276 275 274 272 271 269 267 266 265 264 263 264 265 266 267 268 269 270 270 271 271 271 271 272 271 271 271 270 270 270 270 270 270 270 270 269 268 265 264 263 265 267 269 269 267 264 260 256 252 250 248 246 246 246 246
281 281 280 281 280 280 280 281 280 278 277 278 278 277 277 276 276 274 273 271 269 267 266 267 268 269 270 271 272 273 274 274 274 273 272 271 270 268 267 266 265 265 265 265 266 267 268 269 270 271 271 271 271 271 271 270 269 269 269 269 268 269 269 269 269 269 268 267 265 263 262 262 264 267 269 270 270 269 266 261 257 254 250 248 246 245
278 279 279 279 277 275 275 278 278 277 276 276 276 275 274 274 273 272 271 271 269 267 265 264 264 265 266 266 267 268 269 270 270 271 270 270 269 268 267 267 266 266 266 266 267 267 268 269 270 271 271 271 271 271 270 269 268 267 266 266 267 267 267 267 267 267 266 265 264 262 261 261 261 263 264 266 268 269 270 269 267 264 260 255 252 249
274 274 277 277 276 274 273 274 275 275 275 274 274 273 272 270 270 270 270 269 269 268 266 263 262 261 262 262 263 264 266 267 268 268 269 269 268 268 267 267 267 266 267 267 267 268 268 269 270 271 271 271 271 271 270 269 267 266 265 264 265 265 265 265 265 265 264 263 262 261 260 260 260 260 261 262 263 264 266 267 268 268 266 263 260 256
272 271 273 273 272 273 274 273 273 274 275 273 272 271 269 268 268 269 269 269 269 269 268 266 264 262 261 261 262 263 264 265 266 267 268 268 268 267 267 266 266 266 266 266 267 267 268 269 270 271 271 272 272 271 270 269 268 266 264 263 263 263 264 263 263 263 262 261 260 259 259 258 259 259 260 260 260 260 261 262 263 264 264 264 262 260
272 270 270 269 269 270 271 271 270 271 273 274 274 272 270 268 268 267 268 268 269 270 270 269 267 265 262 261 261 262 264 265 266 266 267 267 267 266 266 265 265 265 265 266 266 266 267 268 269 270 271 272 271 271 270 270 268 267 265 264 263 262 262 262 262 261 261 260 260 259 259 258 258 258 258 258 258 258 258 259 259 260 260 260 260 259
272 270 267 267 268 268 268 267 266 266 267 271 273 273 273 271 269 268 268 268 268 268 270 270 268 266 263 262 261 262 262 263 264 265 265 266 265 265 264 264 264 264 264 265 265 266 267 268 269 270 271 271 271 271 270 270 269 268 266 264 263 262 262 261 261 261 260 260 260 260 259 259 258 258 257 257 256 256 256 256 257 257 257 257 257 257
269 269 267 264 265 267 268 266 263 262 262 264 267 269 271 271 271 270 270 268 266 265 266 267 267 266 264 262 262 261 260 260 260 261 262 262 262 262 262 263 263 263 263 263 264 265 266 267 268 269 270 270 270 270 270 269 269 268 267 265 263 262 261 261 261 260 260 260 260 259 259 258 258 257 257 256 255 255 254 254 254 255 256 256 255 255
263 265 267 264 262 262 265 266 264 261 258 259 261 262 264 267 269 271 270 268 266 264 263 264 265 265 265 263 261 260 260 259 259 259 260 259 259 259 258 259 259 260 260 261 262 263 265 266 267 268 268 268 268 268 269 269 268 268 267 265 264 262 261 261 261 260 260 259 259 258 258 257 257 257 256 255 254 253 252 251 252 253 253 254 254 254
261 261 262 262 260 257 257 261 262 261 257 258 258 257 256 258 261 265 268 267 266 264 262 261 261 262 263 262 260 257 256 257 257 258 259 258 258 257 256 255 255 256 257 259 261 262 264 265 265 266 266 267 267 268 268 268 267 267 266 264 263 262 261 261 260 260 259 258 258 257 257 256 256 256 255 254 253 252 250 249 249 250 251 252 252 252
260 260 260 260 260 259 256 258 258 258 255 255 255 255 253 250 251 254 259 262 264 264 263 261 259 257 257 259 259 256 254 253 253 253 254 254 254 253 253 252 252 254 255 258 260 262 263 264 265 265 266 266 267 267 267 267 266 265 264 263 262 261 261 260 260 259 259 258 257 256 256 255 255 254 254 253 252 250 248 247 247 247 248 248 249 250
258 258 259 259 259 258 258 258 258 255 251 249 250 252 254 250 247 247 251 255 258 261 263 263 261 258 254 254 254 255 254 254 253 251 250 249 249 248 249 250 250 251 253 257 259 261 262 263 264 265 265 266 266 266 266 265 264 263 262 261 260 260 259 259 258 258 257 257 256 255 255 254 253 253 252 251 250 248 247 246 245 245 245 246 246 247
256 257 257 257 257 256 255 255 255 253 250 248 248 250 252 251 249 249 251 254 255 257 260 262 262 261 258 254 252 252 254 255 255 255 254 253 252 250 250 251 251 252 253 255 257 258 259 261 263 264 264 265 265 265 265 264 263 262 261 260 259 258 257 257 256 256 255 255 254 254 253 252 252 251 250 249 248 246 246 245 244 244 244 244 245 245
255 256 256 256 255 255 253 253 253 253 252 250 251 253 254 252 250 249 251 254 257 259 261 262 263 262 259 255 253 252 253 254 256 258 258 257 254 251 250 253 255 255 255 256 257 258 258 258 260 261 263 263 263 263 264 263 262 261 260 259 257 256 256 255 254 254 253 253 252 252 251 250 249 248 247 246 246 245 245 244 244 244 244 244 244 244
253 254 254 255 255 255 253 253 253 254 255 254 254 254 255 253 251 249 251 255 258 260 260 262 264 264 261 255 251 249 249 251 252 255 257 257 253 249 246 251 255 256 254 256 256 257 257 257 257 258 260 261 262 263 264 264 264 262 261 259 258 257 256 254 253 252 251 251 250 250 250 249 248 248 247 246 245 245 244 245 245 245 245 245 244 244
253 253 254 255 256 256 255 254 253 254 255 255 254 252 251 251 251 250 251 254 256 257 255 257 260 263 264 258 250 243 241 244 248 251 254 255 253 248 244 247 250 252 252 254 255 256 256 256 256 257 257 259 261 263 264 264 264 263 262 261 259 258 257 255 252 250 249 248 248 249 249 249 249 249 248 247 246 245 245 245 245 245 245 245 244 244
253 253 255 256 257 258 258 256 255 254 254 254 253 251 249 248 248 248 250 251 252 253 253 253 254 257 263 262 255 244 237 243 248 252 253 255 254 251 246 246 249 252 254 254 255 256 256 256 255 255 256 259 261 263 264 264 264 263 262 261 260 259 258 254 251 248 246 246 247 248 249 250 250 250 249 248 247 246 245 245 245 245 244 244 243 243
255 255 255 257 258 258 258 256 255 254 253 252 252 251 250 247 245 244 245 246 246 247 249 251 251 252 256 258 259 255 247 250 252 253 253 255 255 253 247 247 250 253 254 255 256 257 258 257 255 254 256 259 262 264 265 266 265 265 263 262 260 258 257 253 249 246 244 244 245 246 247 248 247 247 247 246 245 245 244 244 243 243 243 243 242 242
258 256 254 257 259 259 257 255 254 253 252 252 251 250 249 247 245 244 244 243 243 244 245 248 249 251 252 257 259 259 255 256 257 257 256 257 257 255 249 249 251 253 253 253 254 255 257 257 257 258 259 260 262 264 266 267 267 267 266 264 262 259 255 250 246 243 243 244 245 246 246 245 244 242 241 241 241 241 241 241 241 241 242 242 242 242
259 257 254 255 257 258 256 254 254 254 254 253 251 247 245 244 244 244 244 244 245 244 242 244 246 248 250 255 258 257 253 252 253 256 257 257 256 254 251 250 250 251 252 252 251 251 254 256 257 259 259 259 260 261 263 265 266 268 268 268 267 264 259 253 248 245 245 246 246 247 246 244 242 240 238 238 239 239 240 240 241 241 241 242 242 243
257 257 256 255 254 254 255 255 255 255 254 252 249 244 241 242 244 244 244 244 244 243 242 243 245 247 250 253 255 254 249 246 247 250 256 257 257 255 253 252 252 252 253 254 254 254 254 256 258 259 259 258 257 257 259 261 262 264 267 270 270 268 264 259 254 251 250 250 249 248 247 245 243 241 240 240 240 241 241 242 242 243 243 244 244 245
254 255 256 254 253 253 254 255 255 255 253 250 246 243 241 242 243 244 244 242 243 244 245 247 250 252 252 254 255 255 250 245 243 245 251 255 256 256 255 254 254 255 257 258 260 261 260 259 258 257 257 255 255 255 256 257 259 261 265 269 271 270 267 262 258 255 253 250 248 246 245 244 244 244 245 245 245 245 245 245 245 245 246 246 246 246
249 251 253 252 251 250 251 252 252 252 250 247 246 244 244 243 244 245 245 245 246 247 248 251 253 253 252 252 253 253 249 245 242 243 247 254 257 258 258 257 258 259 260 260 262 264 264 261 256 252 251 251 252 253 254 255 257 259 263 267 269 269 267 263 259 256 252 249 247 244 243 244 245 246 248 249 248 248 247 247 247 247 247 248 248 248
247 248 249 249 248 247 247 248 248 248 247 245 244 244 245 246 247 247 248 246 246 247 248 249 249 249 249 248 249 250 248 242 240 240 245 253 257 259 259 258 259 261 262 262 262 262 262 259 254 250 248 250 251 252 253 254 255 256 258 261 264 265 266 264 261 257 254 251 249 247 246 246 247 248 249 249 249 249 248 247 247 248 248 248 249 249
248 248 249 249 250 249 249 249 249 248 247 246 244 243 243 245 246 245 243 240 240 242 244 245 246 246 247 246 248 248 247 242 238 235 237 249 257 260 259 258 257 259 261 262 261 258 256 255 252 250 248 249 250 251 252 252 253 253 252 252 254 257 260 261 261 260 257 254 252 251 250 249 249 249 250 250 250 250 249 249 248 248 249 249 250 250
253 253 253 253 253 253 252 252 252 251 250 248 247 245 244 244 242 241 238 236 236 238 241 243 246 248 248 247 247 248 248 245 240 235 232 242 252 257 256 255 256 256 259 260 258 254 252 253 253 252 252 251 250 250 250 249 249 249 247 246 247 249 253 257 259 260 259 257 255 253 252 251 251 251 251 251 251 251 250 250 250 250 250 251 251 250
257 257 256 256 255 255 255 254 254 253 252 251 250 248 247 245 242 241 241 238 237 237 239 242 245 248 249 247 248 249 248 245 240 235 230 236 245 251 253 253 253 254 256 259 259 257 255 256 257 258 257 254 252 250 248 247 246 245 244 243 244 246 250 255 257 259 259 257 256 254 253 252 252 252 252 252 251 251 251 250 251 251 251 251 250 249
261 260 259 258 258 257 257 256 256 255 253 252 251 249 247 245 244 243 243 241 238 238 239 240 242 245 249 250 252 252 249 244 240 235 231 237 244 249 251 252 252 252 254 260 264 263 259 258 258 258 257 255 252 250 247 244 243 243 243 243 245 247 250 254 256 258 258 257 256 254 254 253 253 252 252 252 251 251 251 251 251 251 250 248 247 247
265 264 262 260 259 258 258 257 256 255 253 252 251 250 247 246 244 244 244 240 237 236 237 239 241 244 248 251 254 252 248 242 237 232 227 235 243 248 249 251 250 250 251 259 265 266 263 260 256 253 252 251 249 246 243 240 239 239 241 244 247 249 250 252 253 255 255 255 254 254 253 253 253 252 252 251 251 251 250 250 250 250 249 246 245 245
271 269 266 263 261 259 257 255 254 253 252 251 250 249 247 244 243 242 241 236 233 233 236 239 241 243 243 246 248 249 248 241 233 224 218 228 239 246 246 249 250 249 244 246 255 264 268 265 259 253 250 250 249 247 243 238 234 232 235 243 248 251 250 250 250 251 252 252 253 253 252 252 252 252 251 251 250 250 250 250 249 249 248 245 244 244
272 270 267 265 263 260 256 253 251 250 249 248 246 245 243 241 240 238 236 233 231 232 235 239 241 242 241 240 243 247 251 247 236 225 217 223 236 242 239 244 247 247 242 239 243 254 265 268 268 265 262 257 257 256 251 240 233 228 227 234 245 250 249 248 249 250 251 251 252 252 252 251 251 250 250 249 249 249 249 250 250 249 247 244 243 243
270 267 265 264 261 258 254 250 247 245 244 242 240 239 238 238 236 235 233 231 229 230 232 236 239 240 240 241 243 247 251 250 242 232 226 226 234 241 239 241 245 246 246 241 240 245 254 262 266 268 264 251 244 243 244 236 228 222 220 228 238 246 248 247 247 249 250 251 252 252 251 251 250 250 249 248 248 248 249 250 251 250 247 243 241 242
268 266 264 262 260 256 252 248 246 244 242 240 238 237 235 234 233 231 230 229 227 227 228 230 233 236 239 241 244 247 249 247 242 236 230 228 233 240 241 241 243 245 247 246 244 244 248 253 258 261 260 248 234 226 223 221 219 216 213 222 233 242 245 243 244 247 249 249 250 251 250 251 251 250 249 248 247 247 249 251 253 253 251 244 239 238
269 267 265 263 260 257 254 252 249 247 244 241 239 236 233 231 230 228 227 226 226 225 226 227 229 231 234 239 243 247 249 246 240 234 230 227 229 236 241 240 241 242 246 247 247 247 249 250 252 254 256 253 243 228 217 213 210 209 210 220 228 235 239 237 239 244 249 247 247 247 245 247 248 249 248 247 246 247 249 253 256 258 257 249 243 238
271 269 268 266 264 262 261 258 255 251 247 242 238 234 231 228 227 226 225 225 225 225 226 227 228 230 232 236 240 245 249 248 242 235 230 226 226 230 237 239 240 240 243 246 246 247 249 251 251 250 250 250 246 235 219 206 201 203 213 220 226 232 236 235 236 241 246 247 247 246 243 242 242 243 245 246 248 249 252 256 260 264 266 261 255 247
274 273 272 270 269 267 265 262 258 254 248 244 238 233 228 226 224 224 224 224 224 225 226 228 229 231 232 235 238 242 247 248 245 238 231 228 226 228 235 240 240 238 238 242 244 245 247 250 251 250 248 246 242 234 216 195 193 202 214 216 221 227 235 235 236 238 243 246 248 247 244 243 242 243 246 248 250 253 255 259 263 268 277 280 278 272
275 274 274 273 271 268 266 263 259 255 250 245 240 235 228 225 223 222 222 222 222 223 225 227 229 232 232 235 237 240 244 245 244 241 236 233 231 231 235 241 241 238 236 239 242 244 245 248 249 250 249 247 241 230 204 187 190 200 210 209 213 220 231 234 237 239 245 250 252 253 251 248 247 248 249 249 248 249 252 255 260 268 283 291 301 312
275 275 275 274 272 270 267 264 260 257 252 247 243 237 231 226 224 222 222 221 221 222 223 225 229 232 233 235 237 239 241 242 242 241 238 235 232 231 233 238 240 240 238 238 239 241 242 244 247 249 251 252 245 228 194 184 186 191 194 201 212 222 228 233 240 247 253 257 261 261 260 257 254 251 248 245 241 238 240 248 258 268 284 284 295 316
275 275 276 275 274 272 268 265 262 259 254 250 245 240 234 229 226 224 223 222 223 224 225 227 230 233 235 236 238 239 240 241 241 241 240 236 233 231 231 235 238 239 238 238 237 237 238 241 243 245 247 245 239 217 191 184 183 183 183 191 213 229 233 238 247 257 263 266 266 266 265 260 257 252 247 243 240 238 239 247 264 283 297 288 286 295
279 279 281 281 280 278 275 270 266 260 254 248 244 239 233 228 226 224 222 222 223 225 226 227 230 234 236 237 238 239 240 245 248 249 248 244 241 238 236 238 239 241 241 240 239 239 239 242 244 245 244 239 225 200 181 176 177 180 183 189 208 232 250 258 267 275 281 279 274 270 267 264 259 254 250 247 246 246 249 251 287 328 335 316 301 294
284 285 286 286 286 285 282 278 271 262 251 243 237 232 227 224 222 221 220 221 221 222 222 223 225 230 234 235 235 233 230 244 260 264 262 254 250 247 245 245 246 247 249 250 251 251 249 251 251 249 243 226 203 181 164 155 153 156 158 178 227 258 274 281 290 296 300 294 288 282 277 271 265 258 251 250 256 289 355 33 40 40 29 7 350 343
287 286 284 284 285 288 290 289 283 272 256 242 234 229 225 222 220 221 221 222 222 221 220 220 221 225 229 224 203 137 114 144 277 293 295 275 261 253 249 248 248 249 252 256 259 260 259 256 251 245 223 180 162 154 145 133 108 78 52 26 356 316 294 311 321 324 315 303 295 287 284 277 271 264 254 247 59 50 44 45 45 43 38 31 23 22
286 284 282 282 282 285 289 293 295 294 288 276 264 255 247 243 238 235 232 231 230 229 226 223 224 224 226 202 155 116 109 29 344 347 348 342 328 303 273 257 250 247 245 248 250 249 238 228 226 59 78 106 116 122 124 119 107 88 70 46 34 19 351 330 325 323 315 305 297 290 285 282 277 271 259 64 61 56 49 44 39 33 30 28 30 36
284 283 283 283 284 285 287 291 296 300 303 303 301 299 298 293 281 269 260 258 256 249 242 227 219 215 204 143 113 97 67 19 12 10 7 0 357 354 346 330 303 271 252 252 239 160 126 107 82 67 72 85 91 95 96 95 89 81 68 51 40 27 357 337 325 318 311 305 301 298 295 291 283 275 67 66 60 55 49 45 40 35 28 28 33 41
288 289 291 291 292 292 293 295 298 300 303 304 303 302 301 290 275 264 260 260 258 254 241 214 186 154 116 94 81 65 38 23 17 15 12 6 5 7 12 23 35 45 53 55 57 59 67 69 67 69 75 76 75 72 68 70 68 62 49 37 27 15 358 351 342 330 315 308 306 306 305 299 297 320 73 68 62 56 49 45 41 37 32 33 37 44
298 299 301 301 301 301 302 303 305 307 309 312 315 315 311 296 283 271 264 262 259 256 220 111 93 85 79 73 66 54 44 33 25 18 12 10 9 12 19 33 46 57 66 68 67 63 60 55 51 52 61 66 63 57 47 47 48 47 39 25 18 14 10 7 356 342 326 327 327 324 317 314 325 39 74 73 68 61 51 45 40 37 35 37 43 49
307 308 309 311 312 314 317 320 322 325 328 331 334 336 337 335 336 335 324 336 8 48 62 66 71 74 74 70 65 62 59 51 39 27 18 12 11 14 21 35 52 64 73 76 76 74 69 62 57 52 50 52 53 49 42 39 38 36 30 24 20 18 19 16 7 358 349 358 355 347 334 334 350 42 74 75 71 63 55 46 40 35 34 38 46 53
313 315 318 320 323 327 330 334 337 341 344 346 348 350 352 357 3 10 18 27 40 54 64 73 78 81 79 72 67 64 63 58 47 33 21 11 7 8 14 29 54 71 79 79 78 76 73 66 60 54 49 48 46 43 39 35 33 31 32 27 24 22 24 24 16 11 11 13 9 2 355 353 358 28 69 76 73 67 59 50 42 36 33 38 46 53
320 322 326 328 331 334 336 340 344 347 349 351 354 357 0 6 13 20 28 38 49 59 67 75 79 80 78 73 69 65 62 55 44 30 19 5 353 349 349 359 29 60 77 78 77 74 71 65 57 50 44 42 41 39 34 26 24 28 35 30 25 23 30 31 25 20 21 21 15 10 6 6 9 27 59 73 74 70 63 54 46 39 33 38 46 54
326 329 332 334 337 339 341 344 348 351 352 354 357 2 7 12 18 25 32 41 50 58 64 69 73 77 79 76 73 70 66 60 49 35 16 348 330 317 312 314 326 350 26 57 66 69 69 67 58 47 39 35 34 34 37 26 21 24 34 27 21 21 30 32 29 27 28 27 23 18 18 21 24 31 48 68 72 71 65 58 50 41 32 35 44 54